Flag for U.S.A. Weather past 2 weeks in Mansfield, Texas, U.S.A.

Now
73 °F

Mild.


Feels Like: 70 °F
Forecast: 69 / 86 °F
Wind: 5 mph from East

Location: Burleson-Rendon

Current Time: Sep 18, 2014 at 11:50:49 PM

Latest Report: Sep 18, 2014 at 11:15 PM


Visibility: N/A

Pressure: 29.95 "Hg

Humidity: 91%

Dew point: 70 °F

Location of MansfieldLocation

Historic Weather in Mansfield — Graph

°F

Mansfield temperature yesterday

Maximum temperature yesterday: 93 °F (at 1:47 PM)
Minimum temperature yesterday: 70 °F (at 6:35 AM)
Average temperature yesterday: 78 °F

Past Weeks' High & Low Weather Summary

 TemperatureHumidityPressure
High100 °F (Sep 10, 2:54 PM)95% (Sep 17, 6:35 AM)30.31 "Hg (Sep 17, 6:35 AM)
Low55 °F (Sep 13, 7:46 AM)31% (Sep 9, 3:46 PM)29.75 "Hg (Sep 10, 5:50 PM)
Average77 °F72%30.03 "Hg
* Reported Sep 3 10:15 PM — Sep 18 10:35 PM, Mansfield, Weather by CustomWeather, © 2014

Note: Actual official high and low records may vary slightly from our data, if they occured in-between our weather recording intervals... More about our weather records

Advertising

Mansfield weather history for previous 24 hours

 ConditionsComfort  
Time TempWeatherWind HumidityBarometerVisibility
10:35 PM
Sep 18
73 °FFog.No wind89%29.93 "Hg5 mi
10:15 PM74 °FClear.3 mph88%29.93 "Hg7 mi
9:55 PM75 °FClear.5 mph86%29.94 "Hg7 mi
9:35 PM75 °FClear.5 mph85%29.93 "HgN/A
9:15 PM76 °FClear.6 mph83%29.92 "Hg7 mi
8:55 PM77 °FClear.7 mph81%29.92 "Hg7 mi
8:35 PM77 °FClear.8 mph80%29.92 "Hg7 mi
8:15 PM77 °FSunny.9 mph80%29.90 "Hg7 mi
7:55 PM77 °FSunny.10 mph79%29.90 "Hg7 mi
7:35 PM78 °FScattered clouds.10 mph77%29.90 "Hg10 mi
7:15 PM80 °FBroken clouds.16 mph73%29.89 "HgN/A
6:48 PM84 °FScattered clouds.7 mph62%29.87 "Hg10 mi
5:49 PM86 °FScattered clouds.5 mph52%29.86 "Hg10 mi
4:51 PM88 °FScattered clouds.8 mph49%29.85 "Hg10 mi
3:50 PM90 °FScattered clouds.6 mph49%29.85 "Hg10 mi
2:48 PM90 °FBroken clouds.5 mph49%29.88 "Hg10 mi
1:50 PM88 °FPartly sunny.5 mph55%29.90 "Hg10 mi
12:48 PM88 °FBroken clouds.8 mph55%29.93 "Hg10 mi
11:52 AM84 °FScattered clouds.5 mph66%29.93 "Hg10 mi
10:59 AM81 °FPartly sunny.No wind74%29.95 "Hg10 mi
9:49 AM77 °FFog.3 mph83%29.96 "Hg5 mi
8:52 AM75 °FFog.5 mph89%29.94 "Hg4 mi
7:52 AM73 °FFog.No wind94%29.91 "Hg4 mi
6:48 AM72 °FFog.7 mph94%29.90 "Hg5 mi
6:35 AM72 °FFog.5 mph94%29.91 "Hg5 mi
6:15 AM72 °FPassing clouds.No wind94%29.91 "Hg7 mi
5:55 AM72 °FPassing clouds.No wind94%29.90 "Hg7 mi
5:15 AM72 °FMild.No wind93%29.90 "HgN/A
4:55 AM72 °FClear.No wind93%29.90 "Hg7 mi
4:15 AM72 °FClear.3 mph93%29.90 "Hg7 mi
3:55 AM72 °FMild.No wind92%29.90 "HgN/A
3:35 AM72 °FMild.No wind91%29.90 "HgN/A
3:15 AM73 °FClear.No wind89%29.91 "Hg7 mi
2:55 AM73 °FClear.3 mph89%29.90 "Hg7 mi
2:15 AM74 °FClear.6 mph88%29.91 "Hg7 mi
1:55 AM74 °FClear.3 mph87%29.92 "Hg7 mi
1:35 AM74 °FClear.6 mph87%29.91 "Hg7 mi
1:15 AM74 °FMild.6 mph87%29.92 "HgN/A
12:55 AM75 °FClear.5 mph84%29.93 "Hg7 mi
12:35 AM76 °FClear.No wind85%29.93 "Hg7 mi
12:15 AM76 °FClear.7 mph86%29.93 "Hg7 mi
11:55 PM
Sep 17
77 °FClear.8 mph86%29.93 "Hg7 mi
11:15 PM77 °FPassing clouds.8 mph82%29.93 "Hg5 mi
Weather by CustomWeather, © 2014

See weather overviewHow to use our weather pages